This is the latest recevied weather packets stored in our database for station/object KM4NDN. If no packets are shown the sender has not sent any weather packets the latest 10 day(s).
| Time | Temp. | Humidity | Pressure | Rain* | Wind** | Luminosity | Snow |
|---|---|---|---|---|---|---|---|
| 1777826957 | 15° C | 45% | 1013.1 hPa | 0 mm | - | 795 W/m² | - |
| 1777826655 | 15° C | 44% | 1013.2 hPa | 0 mm | - | 790 W/m² | - |
| 1777826351 | 14.44° C | 44% | 1013.2 hPa | 0 mm | - | 787 W/m² | - |
| 1777826049 | 14.44° C | 41% | 1013.3 hPa | 0 mm | - | 782 W/m² | - |
| 1777825746 | 14.44° C | 42% | 1013.4 hPa | 0 mm | - | 780 W/m² | - |
| 1777825444 | 14.44° C | 45% | 1013.2 hPa | 0 mm | - | 774 W/m² | - |
| 1777825140 | 14.44° C | 44% | 1013.5 hPa | 0 mm | - | 769 W/m² | - |
| 1777824836 | 13.89° C | 43% | 1013.6 hPa | 0 mm | - | 764 W/m² | - |
| 1777824533 | 13.89° C | 43% | 1013.6 hPa | 0 mm | - | 758 W/m² | - |
| 1777824230 | 13.89° C | 43% | 1013.6 hPa | 0 mm | - | 753 W/m² | - |
| 1777823925 | 13.89° C | 44% | 1013.6 hPa | 0 mm | - | 747 W/m² | - |
| 1777823623 | 13.33° C | 45% | 1013.8 hPa | 0 mm | - | 741 W/m² | - |
| 1777823320 | 13.33° C | 45% | 1013.9 hPa | 0 mm | - | 733 W/m² | - |
| 1777823017 | 13.33° C | 46% | 1013.9 hPa | 0 mm | - | 725 W/m² | - |
| 1777822715 | 13.33° C | 44% | 1014.1 hPa | 0 mm | - | 717 W/m² | - |
| 1777822413 | 12.78° C | 47% | 1014.1 hPa | 0 mm | - | 709 W/m² | - |
| 1777822110 | 12.78° C | 47% | 1014 hPa | 0 mm | - | 700 W/m² | - |
| 1777821808 | 12.78° C | 45% | 1014 hPa | 0 mm | - | 691 W/m² | - |
| 1777821505 | 12.22° C | 46% | 1014 hPa | 0 mm | - | 683 W/m² | - |
| 1777821203 | 12.78° C | 45% | 1014 hPa | 0 mm | - | 673 W/m² | - |
| 1777820899 | 12.78° C | 47% | 1014.1 hPa | 0 mm | - | 664 W/m² | - |
| 1777820595 | 12.22° C | 48% | 1014 hPa | 0 mm | - | 654 W/m² | - |
| 1777820292 | 12.22° C | 48% | 1014.2 hPa | 0 mm | - | 644 W/m² | - |
| 1777819990 | 12.22° C | 47% | 1014.2 hPa | 0 mm | - | 637 W/m² | - |
| 1777819686 | 12.22° C | 47% | 1014 hPa | 0 mm | - | 625 W/m² | - |
* Rain latest hour (hover to see other rain measurements)
** Current wind speed in m/s (hover to see current wind gust speed)